Location: Lake Almanor
(40.2485°N, 121.1442°W)
Time: 08:33:24
(UTC-08:00)

STARLINK-1115 - Pass Details

Date: 31 January 2020
Orbit: 348 x 350 km, 53.0° (Epoch: 18 February)

Event Time Altitude Azimuth Distance (km) Brightness Sun altitude
Rises 19:45:31 0° 296° (WNW) 2,164 7.6 -27.6°
Reaches altitude 10° 19:47:53 10° 277° (W) 1,317 6.5 -28.0°
Enters shadow 19:48:26 13° 268° (W) 1,160 6.2 -28.2°
